GOES 9

operational
NORAD ID: 23581 Int'l Des: 1995-025 Owner: NOAA Country: US
HEOCIRCULAR

About GOES 9

Description loading...

Live Position

Loading 3D Globe...

Upcoming Passes

Altitude History

Altitude vs Time

uPlot chart will show altitude changes over time

Two-Line Element Set

1 23581U 95025A 26060.10033743 -.00000164 00000-0 00000+0 0 9996
2 23581 13.8667 15.3372 0003728 211.4372 265.6313 0.98799735111694
Epoch: Mar 1, 2026 • Age: 54 hours

Current Status

Altitude 36192.9 km
Velocity 3.06 km/s
Sub-Earth Point 3.73°N, 73.64°W
Launch Date May 23, 1995
Age 30.7 years
Type weather

Technical Details

Classification Payload
Mass 2105.00 kg
Dry Mass 977.00 kg
Total Mass 2105.00 kg
Length 4.50 m
Diameter 2.50 m
Span 26.90 m
Shape Box + Pan + Ant
Manufacturer LOR
Bus Type FS-1300
Phase Status In Orbit
Owner/State NOAA/US

Large Constellations

Loading constellations...